Ellensburg, WA

7:55 AM PST on December 13, 2017 (GMT -0800)
Bowers

Weather History for KELN - December, 2013

Change the Weather History Date:

Thursday, December 12, 2013

  Actual Average (KYKM) Record (KYKM)
Temperature  
Mean Temperature 24 °F -  
Max Temperature 28 °F 38 °F 56 °F (1956)
Min Temperature 19 °F 21 °F -8 °F (1972)
Degree Days  
Heating Degree Days 42    
Moisture  
Dew Point 17 °F    
Average Humidity 76    
Maximum Humidity 85    
Minimum Humidity 64    
Precipitation  
Precipitation 0.00 in - - ()
Sea Level Pressure  
Sea Level Pressure 30.22 in    
Wind  
Wind Speed 2 mph (North)    
Max Wind Speed 5 mph    
Max Gust Speed -    
Visibility 8 miles    
Events      
Averages and records for this station are not official NWS values.
T = Trace of Precipitation, MM = Missing Value Source: NWS Daily Summary

Daily Weather History Graph

Daily Weather History Graph

Search for Another Location

Airport or City:

Trip Planner

Search our weather history database for the weather conditions in past years. The results will help you decide how hot, cold, wet, or windy it might be!

Date:

Astronomy

Dec. 12, 2013 Rise Set
Actual Time 7:39 AM PST 4:12 PM PST
Civil Twilight 7:03 AM PST 4:48 PM PST
Nautical Twilight 6:25 AM PST 5:26 PM PST
Astronomical Twilight 5:47 AM PST 6:04 PM PST
Moon 1:35 PM PST (12/12) 2:53 AM PST (12/12)
Length of Visible Light 9h 44m
Length of Day
8h 33m
Waxing Gibbous, 81% of the Moon is Illuminated
Dec 12
Waxing Gibbous
Dec 17
Full
Dec 25
Last Quarter
Jan 1
New
Jan 7
First Quarter

Hourly Weather History & Observations

Time (PST) Temp. Windchill Dew Point Humidity Pressure Visibility Wind Dir Wind Speed Gust Speed Precip Events Conditions
12:53 AM 19.9 °F 14.9 °F 15.1 °F 81% 30.34 in 10.0 mi ENE 3.5 mph - N/A   Clear
1:53 AM 21.0 °F 14.6 °F 16.0 °F 81% 30.32 in 10.0 mi NE 4.6 mph - N/A   Clear
2:53 AM 19.9 °F - 15.1 °F 81% 30.32 in 9.0 mi Calm Calm - N/A   Clear
3:53 AM 21.0 °F 16.2 °F 16.0 °F 81% 30.30 in 9.0 mi ENE 3.5 mph - N/A   Clear
4:53 AM 19.0 °F - 14.0 °F 81% 30.28 in 8.0 mi Calm Calm - N/A   Clear
5:53 AM 19.9 °F - 15.1 °F 81% 30.27 in 9.0 mi Calm Calm - N/A   Clear
6:53 AM 19.9 °F - 15.1 °F 81% 30.27 in 9.0 mi Calm Calm - N/A   Clear
7:53 AM 19.9 °F - 16.0 °F 85% 30.27 in 8.0 mi Calm Calm - N/A   Clear
8:53 AM 21.0 °F - 16.0 °F 81% 30.27 in 6.0 mi Calm Calm - N/A   Haze
9:53 AM 24.1 °F - 17.1 °F 75% 30.26 in 7.0 mi Calm Calm - N/A   Clear
10:53 AM 25.0 °F - 17.1 °F 72% 30.24 in 8.0 mi Calm Calm - N/A   Clear
11:53 AM 27.0 °F - 19.0 °F 72% 30.22 in 8.0 mi Calm Calm - N/A   Clear
12:53 PM 27.0 °F 23.0 °F 19.0 °F 72% 30.19 in 8.0 mi SSW 3.5 mph - N/A   Clear
1:53 PM 28.9 °F - 19.0 °F 67% 30.17 in 7.0 mi Calm Calm - N/A   Scattered Clouds
2:53 PM 28.9 °F - 18.0 °F 64% 30.16 in 7.0 mi Calm Calm - N/A   Partly Cloudy
3:53 PM 28.9 °F - 18.0 °F 64% 30.16 in 7.0 mi Calm Calm - N/A   Scattered Clouds
4:53 PM 26.1 °F - 18.0 °F 71% 30.17 in 8.0 mi Calm Calm - N/A   Mostly Cloudy
5:53 PM 27.0 °F - 19.0 °F 72% 30.15 in 8.0 mi Calm Calm - N/A   Overcast
6:53 PM 27.0 °F - 19.0 °F 72% 30.17 in 8.0 mi Calm Calm - N/A   Overcast
7:53 PM 26.1 °F - 18.0 °F 71% 30.17 in 8.0 mi Calm Calm - N/A   Mostly Cloudy
8:53 PM 23.0 °F 18.4 °F 17.1 °F 78% 30.18 in 7.0 mi NNW 3.5 mph - N/A   Overcast
9:53 PM 25.0 °F - 19.0 °F 78% 30.19 in 7.0 mi Calm Calm - N/A   Overcast
10:53 PM 25.0 °F 20.7 °F 19.0 °F 78% 30.20 in 7.0 mi NW 3.5 mph - N/A   Overcast
11:01 PM 25.0 °F 20.7 °F 19.0 °F 78% 30.13 in 6.0 mi NW 3.5 mph - N/A   Haze
11:53 PM 23.0 °F - 18.0 °F 81% 30.22 in 6.0 mi Calm Calm - N/A   Haze